Location: Newark
(4.2170°N, 12.9170°E)
Time: 03:56:22
(UTC+00:00)

N. Korean satellite - Pass Details

Date: 14 November 2019
Orbit: 455 x 506 km, 97.2° (Epoch: 10 December)

Event Time Altitude Azimuth Distance (km) Brightness Sun altitude
Rises 17:07:25 0° 191° (S) 2,494 10.6 -4.8°
Reaches altitude 10° 17:09:44 10° 205° (SSW) 1,625 9.9 -5.3°
Maximum altitude 17:12:34 23° 260° (W) 1,032 9.4 -6.0°
Drops below altitude 10° 17:15:27 10° 315° (NW) 1,644 9.6 -6.7°
Sets 17:17:48 0° 329° (NNW) 2,531 10.4 -7.3°
